User: anonymous   Login
Location: Unspecified
(0.0000°N, 0.0000°E)
Time: 16:59:14
(UTC+02:00)
Language:

Iridium 75 - Orbit

View from above orbital plane
View from above orbital plane
View from above satellite
View from above satellite

Ground track
Ground track

The orbit data is extracted from the following two-line orbital elements,

1 25346U 98032E   16243.41427293  .00000006  00000-0 -47854-5 0  9990
2 25346  86.4006 345.6710 0002191  96.9543 306.2963 14.34221457957992
Epoch (UTC): 30 August 2016 09:56:33
Eccentricity: 0.0002191
inclination: 86.4006°
perigee height: 776 km
apogee height: 779 km
right ascension of ascending node: 345.6710°
argument of perigee: 96.9543°
revolutions per day: 14.34221457
mean anomaly at epoch: 306.2963°
orbit number at epoch: 95799

The dashed part of the orbit path shows where the satellite is in the earth's shadow,  

DLR